TimeEDT,TemperatureF,Dew PointF,Humidity,Sea Level PressureIn,VisibilityMPH,Wind Direction,Wind SpeedMPH,Gust SpeedMPH,PrecipitationIn,Events,Conditions,WindDirDegrees,DateUTC
12:15 AM,42.8,32.0,66,29.93,10.0,Calm,Calm,-,N/A,,Overcast,0,2013-03-31 04:15:00
12:35 AM,44.6,32.0,61,29.92,10.0,Calm,Calm,-,N/A,,Overcast,0,2013-03-31 04:35:00
12:55 AM,42.8,33.8,70,29.91,10.0,Calm,Calm,-,N/A,,Overcast,0,2013-03-31 04:55:00
1:15 AM,42.8,33.8,70,29.89,10.0,Calm,Calm,-,N/A,Rain,Light Rain,0,2013-03-31 05:15:00
1:35 AM,42.8,33.8,70,29.88,10.0,Calm,Calm,-,N/A,,Mostly Cloudy,0,2013-03-31 05:35:00
1:55 AM,42.8,33.8,70,29.88,10.0,Calm,Calm,-,N/A,,Mostly Cloudy,0,2013-03-31 05:55:00
2:15 AM,41.0,33.8,76,29.87,10.0,Calm,Calm,-,N/A,,Scattered Clouds,0,2013-03-31 06:15:00
2:35 AM,41.0,35.6,81,29.86,10.0,Calm,Calm,-,N/A,,Mostly Cloudy,0,2013-03-31 06:35:00
3:15 AM,41.0,33.8,76,29.84,10.0,Calm,Calm,-,N/A,,Scattered Clouds,0,2013-03-31 07:15:00
3:35 AM,39.2,33.8,81,29.83,10.0,Calm,Calm,-,N/A,,Mostly Cloudy,0,2013-03-31 07:35:00
3:55 AM,41.0,32.0,70,29.82,10.0,Calm,Calm,-,N/A,,Overcast,0,2013-03-31 07:55:00
4:15 AM,41.0,32.0,70,29.81,10.0,Calm,Calm,-,N/A,,Overcast,0,2013-03-31 08:15:00
4:35 AM,42.8,33.8,70,29.81,10.0,Calm,Calm,-,N/A,,Overcast,0,2013-03-31 08:35:00
4:55 AM,42.8,33.8,70,29.80,10.0,Calm,Calm,-,N/A,,Overcast,0,2013-03-31 08:55:00
5:15 AM,42.8,33.8,70,29.79,10.0,Calm,Calm,-,N/A,,Overcast,0,2013-03-31 09:15:00
5:35 AM,42.8,33.8,70,29.79,10.0,Calm,Calm,-,N/A,,Overcast,0,2013-03-31 09:35:00
5:55 AM,44.6,33.8,66,29.78,10.0,SW,5.8,-,N/A,,Overcast,230,2013-03-31 09:55:00
6:15 AM,44.6,35.6,71,29.78,10.0,WSW,5.8,-,N/A,,Overcast,240,2013-03-31 10:15:00
6:35 AM,44.6,35.6,71,29.78,10.0,WSW,6.9,-,N/A,,Overcast,240,2013-03-31 10:35:00
7:15 AM,42.8,39.2,87,29.78,7.0,WSW,9.2,-,N/A,Rain,Light Rain,240,2013-03-31 11:15:00
7:35 AM,42.8,41.0,93,29.78,5.0,WSW,5.8,-,N/A,Rain,Light Rain,250,2013-03-31 11:35:00
7:55 AM,42.8,41.0,93,29.78,3.0,WSW,8.1,-,N/A,,Overcast,240,2013-03-31 11:55:00
8:15 AM,42.8,41.0,93,29.78,1.2,WSW,9.2,-,N/A,,Overcast,250,2013-03-31 12:15:00
8:35 AM,42.8,42.8,100,29.78,1.0,WSW,8.1,-,N/A,,Overcast,250,2013-03-31 12:35:00
8:55 AM,42.8,42.8,100,29.77,1.0,WSW,5.8,-,N/A,,Overcast,250,2013-03-31 12:55:00
9:15 AM,42.8,42.8,100,29.77,0.8,WSW,5.8,-,N/A,,Overcast,250,2013-03-31 13:15:00
9:35 AM,42.8,42.8,100,29.77,0.8,WSW,5.8,-,N/A,,Overcast,250,2013-03-31 13:35:00
9:55 AM,42.8,42.8,100,29.76,1.0,WSW,6.9,-,N/A,,Overcast,250,2013-03-31 13:55:00
10:15 AM,44.6,44.6,100,29.77,2.0,West,11.5,-,N/A,,Overcast,260,2013-03-31 14:15:00
10:35 AM,44.6,42.8,93,29.77,4.0,West,9.2,-,N/A,,Overcast,280,2013-03-31 14:35:00
10:55 AM,44.6,42.8,93,29.78,5.0,West,12.7,-,N/A,,Overcast,280,2013-03-31 14:55:00
11:15 AM,48.2,42.8,82,29.77,10.0,WNW,11.5,-,N/A,,Overcast,290,2013-03-31 15:15:00
11:35 AM,48.2,39.2,71,29.77,10.0,West,13.8,-,N/A,,Mostly Cloudy,270,2013-03-31 15:35:00
11:55 AM,51.8,37.4,58,29.77,10.0,West,13.8,18.4,N/A,,Mostly Cloudy,280,2013-03-31 15:55:00
12:15 PM,51.8,37.4,58,29.77,10.0,West,11.5,16.1,N/A,,Scattered Clouds,270,2013-03-31 16:15:00
12:35 PM,53.6,37.4,54,29.77,10.0,West,11.5,17.3,N/A,,Scattered Clouds,280,2013-03-31 16:35:00
12:55 PM,53.6,37.4,54,29.76,10.0,West,15.0,19.6,N/A,,Scattered Clouds,280,2013-03-31 16:55:00
1:15 PM,53.6,35.6,51,29.76,10.0,West,13.8,24.2,N/A,,Scattered Clouds,270,2013-03-31 17:15:00
1:35 PM,55.4,35.6,47,29.75,10.0,West,15.0,21.9,N/A,,Scattered Clouds,270,2013-03-31 17:35:00
1:55 PM,55.4,35.6,47,29.74,10.0,WSW,13.8,19.6,N/A,,Clear,250,2013-03-31 17:55:00
2:15 PM,57.2,33.8,41,29.74,10.0,WSW,13.8,21.9,N/A,,Clear,240,2013-03-31 18:15:00
2:35 PM,59.0,33.8,39,29.73,10.0,West,17.3,23.0,N/A,,Scattered Clouds,260,2013-03-31 18:35:00
2:55 PM,59.0,32.0,36,29.73,10.0,West,12.7,24.2,N/A,,Scattered Clouds,260,2013-03-31 18:55:00
3:15 PM,60.8,32.0,34,29.72,10.0,West,13.8,23.0,N/A,,Scattered Clouds,270,2013-03-31 19:15:00
3:35 PM,60.8,32.0,34,29.71,10.0,West,13.8,21.9,N/A,,Scattered Clouds,260,2013-03-31 19:35:00
3:55 PM,60.8,32.0,34,29.70,10.0,West,16.1,20.7,N/A,,Scattered Clouds,260,2013-03-31 19:55:00
4:15 PM,60.8,32.0,34,29.70,10.0,West,17.3,21.9,N/A,,Mostly Cloudy,260,2013-03-31 20:15:00
4:35 PM,59.0,32.0,36,29.70,10.0,West,18.4,25.3,N/A,,Mostly Cloudy,270,2013-03-31 20:35:00
4:55 PM,59.0,32.0,36,29.70,10.0,West,19.6,26.5,N/A,,Mostly Cloudy,260,2013-03-31 20:55:00
5:15 PM,57.2,32.0,38,29.70,10.0,West,20.7,29.9,N/A,,Mostly Cloudy,270,2013-03-31 21:15:00
5:35 PM,59.0,32.0,36,29.69,10.0,West,13.8,33.4,N/A,,Mostly Cloudy,260,2013-03-31 21:35:00
6:15 PM,57.2,32.0,38,29.69,10.0,West,18.4,31.1,N/A,,Mostly Cloudy,260,2013-03-31 22:15:00
6:35 PM,55.4,32.0,41,29.69,10.0,West,23.0,28.8,N/A,,Mostly Cloudy,270,2013-03-31 22:35:00
7:15 PM,55.4,33.8,44,29.70,10.0,West,17.3,21.9,N/A,,Overcast,280,2013-03-31 23:15:00
7:35 PM,55.4,32.0,41,29.70,10.0,West,25.3,28.8,N/A,,Scattered Clouds,270,2013-03-31 23:35:00
7:55 PM,53.6,32.0,44,29.71,10.0,West,18.4,25.3,N/A,,Scattered Clouds,280,2013-03-31 23:55:00
8:15 PM,51.8,30.2,44,29.72,10.0,West,21.9,26.5,N/A,,Mostly Cloudy,270,2013-04-01 00:15:00
8:35 PM,51.8,30.2,44,29.73,10.0,West,16.1,25.3,N/A,,Scattered Clouds,280,2013-04-01 00:35:00
8:55 PM,50.0,30.2,47,29.73,10.0,West,15.0,-,N/A,,Scattered Clouds,280,2013-04-01 00:55:00
9:15 PM,46.4,32.0,57,29.76,10.0,NW,19.6,26.5,N/A,,Scattered Clouds,320,2013-04-01 01:15:00
9:35 PM,42.8,32.0,66,29.77,10.0,NW,18.4,25.3,N/A,,Clear,320,2013-04-01 01:35:00
9:55 PM,42.8,32.0,66,29.78,10.0,NNW,12.7,19.6,N/A,,Clear,330,2013-04-01 01:55:00
10:15 PM,41.0,32.0,70,29.79,10.0,NNW,10.4,-,N/A,,Clear,330,2013-04-01 02:15:00
10:35 PM,39.2,32.0,75,29.81,10.0,NNW,9.2,-,N/A,,Clear,330,2013-04-01 02:35:00
10:55 PM,39.2,30.2,70,29.81,10.0,NW,12.7,-,N/A,,Clear,320,2013-04-01 02:55:00
11:15 PM,37.4,30.2,75,29.81,10.0,NW,8.1,-,N/A,,Clear,310,2013-04-01 03:15:00
11:35 PM,37.4,30.2,75,29.81,10.0,NW,6.9,-,N/A,,Clear,310,2013-04-01 03:35:00
11:55 PM,35.6,30.2,81,29.81,10.0,WNW,6.9,-,N/A,,Clear,300,2013-04-01 03:55:00